Tracking 20241 objects as of 27-Jan-2020
HD Live streaming from Space Station
objects crossing your sky now

COSMOS 520

Track COSMOS 520 now!
COSMOS 520 is classified as:


NORAD ID: 6192
Int'l Code: 1972-072A
Perigee: 8,581.0 km
Apogee: 31,659.3 km
Inclination: 73.1 °
Period: 715.2 minutes
Semi major axis: 26491 km
RCS: 12.5618 m2 (large)
Launch date: September 19, 1972
Source: Commonwealth of Independent States (former USSR) (CIS)
Launch site: PLESETSK MISSILE AND SPACE COMPLEX (PKMTR)
aabbcc
Your satellite tracking list
Your tracking list is empty




NASA's NSSDC Master Catalog

Two Line Element Set (TLE):
1  6192U 72072A   20026.22369520  .00000022  00000-0  00000+0 0  9998
2  6192  73.1057 304.6635 4355864 262.2335 259.2251  2.01349951348171
Source of the keplerian elements: AFSPC